Fort Lewis, WA

7:52 AM PST on February 22, 2018 (GMT -0800)
Gray Army Air Field

Weather History for KGRF - November, 2013

Change the Weather History Date:

Monday, November 4, 2013

  Actual Average Record
Temperature  
Mean Temperature 40 °F -  
Max Temperature 49 °F 53 °F 67 °F (2010)
Min Temperature 32 °F 36 °F 24 °F (2003)
Degree Days  
Heating Degree Days 24    
Moisture  
Dew Point 38 °F    
Average Humidity 94    
Maximum Humidity 100    
Minimum Humidity 59    
Precipitation  
Precipitation 0.04 in - - ()
Sea Level Pressure  
Sea Level Pressure 30.13 in    
Wind  
Wind Speed 3 mph (East)    
Max Wind Speed 6 mph    
Max Gust Speed -    
Visibility 9 miles    
Events Fog , Rain    
Averages and records for this station are not official NWS values.
T = Trace of Precipitation, MM = Missing Value Source: NWS Daily Summary

Daily Weather History Graph

Daily Weather History Graph

Search for Another Location

Airport or City:

Trip Planner

Search our weather history database for the weather conditions in past years. The results will help you decide how hot, cold, wet, or windy it might be!

Date:

Astronomy

Nov. 04, 2013 Rise Set
Actual Time 6:58 AM PST 4:48 PM PST
Civil Twilight 6:25 AM PST 5:21 PM PST
Nautical Twilight 5:49 AM PST 5:57 PM PST
Astronomical Twilight 5:14 AM PST 6:32 PM PST
Moon 8:19 AM PST (11/4) 5:53 PM PST (11/4)
Length of Visible Light 10h 55m
Length of Day
9h 50m
New Moon, 2% of the Moon is Illuminated
Nov 4
New Moon
Nov 9
First Quarter
Nov 17
Full
Nov 25
Last Quarter
Dec 2
New

Hourly Weather History & Observations

Time (PST) Temp. Windchill Dew Point Humidity Pressure Visibility Wind Dir Wind Speed Gust Speed Precip Events Conditions
12:58 AM 32.2 °F 26.7 °F 32.0 °F 99% 30.14 in 10.0 mi SE 5.8 mph - N/A   Mostly Cloudy
1:23 AM 32.0 °F 26.4 °F 32.0 °F 100% 30.12 in 10.0 mi SE 5.8 mph - N/A   Mostly Cloudy
1:28 AM 32.0 °F 26.4 °F 32.0 °F 100% 30.11 in 10.0 mi SE 5.8 mph - N/A   Scattered Clouds
1:58 AM 33.1 °F - 32.7 °F 99% 30.14 in 10.0 mi East 1.2 mph - N/A   Partly Cloudy
2:58 AM 32.2 °F 27.7 °F 32.0 °F 99% 30.14 in 10.0 mi SE 4.6 mph - N/A   Mostly Cloudy
3:58 AM 33.1 °F - 32.7 °F 99% 30.14 in 10.0 mi NE 1.2 mph - N/A   Overcast
4:18 AM 32.0 °F - 32.0 °F 100% 30.13 in 10.0 mi North 1.2 mph - N/A   Overcast
4:58 AM 34.3 °F - 34.2 °F 99% 30.17 in 10.0 mi South 1.2 mph - N/A   Mostly Cloudy
5:08 AM 33.8 °F - 33.8 °F 100% 30.14 in 10.0 mi Calm Calm - N/A   Scattered Clouds
5:43 AM 32.0 °F - 32.0 °F 100% 30.15 in 10.0 mi SE 2.3 mph - N/A   Mostly Cloudy
5:58 AM 33.8 °F - 33.6 °F 99% 30.17 in 10.0 mi Calm Calm - N/A   Scattered Clouds
6:54 AM 32.0 °F - 32.0 °F 100% 30.15 in 10.0 mi East 2.3 mph - N/A   Partly Cloudy
6:58 AM 33.3 °F - 33.1 °F 99% 30.18 in 10.0 mi Calm Calm - N/A   Partly Cloudy
7:08 AM 32.0 °F - 32.0 °F 100% 30.15 in 10.0 mi SE 2.3 mph - N/A   Mostly Cloudy
7:18 AM 32.0 °F - 32.0 °F 100% 30.15 in 10.0 mi ESE 2.3 mph - N/A   Mostly Cloudy
7:28 AM 32.0 °F - 32.0 °F 100% 30.16 in 10.0 mi SSE 2.3 mph - N/A   Overcast
7:53 AM 32.0 °F - 32.0 °F 100% 30.17 in 10.0 mi SE 2.3 mph - N/A   Overcast
7:58 AM 32.7 °F - 32.4 °F 99% 30.19 in 10.0 mi ESE 1.2 mph - N/A   Overcast
8:04 AM 33.8 °F - 33.8 °F 100% 30.17 in 0.2 mi East 1.2 mph - N/A Fog Fog
8:23 AM 33.8 °F - 32.0 °F 93% 30.16 in 0.2 mi Calm Calm - N/A Fog Fog
8:38 AM 35.6 °F - 35.6 °F 100% 30.17 in 0.2 mi North - - N/A Fog Fog
8:48 AM 35.6 °F - 35.6 °F 100% 30.17 in 0.5 mi East 1.2 mph - N/A Fog Fog
8:58 AM 36.5 °F - 36.3 °F 99% 30.19 in 0.8 mi Calm Calm - N/A   Mist
9:13 AM 37.4 °F - 37.4 °F 100% 30.17 in 10.0 mi Calm Calm - N/A   Clear
9:58 AM 42.4 °F - 40.3 °F 92% 30.20 in 10.0 mi Calm Calm - N/A   Clear
10:24 AM 44.6 °F - 39.2 °F 81% 30.18 in 10.0 mi Variable 1.2 mph - N/A   Clear
10:58 AM 46.8 °F - 38.8 °F 74% 30.19 in 10.0 mi North 1.2 mph - N/A   Partly Cloudy
11:58 AM 48.2 °F - 37.9 °F 68% 30.19 in 10.0 mi SSW 3.5 mph - N/A   Scattered Clouds
12:58 PM 49.1 °F - 35.4 °F 59% 30.17 in 10.0 mi NW 3.5 mph - N/A   Mostly Cloudy
1:58 PM 48.6 °F - 38.8 °F 69% 30.16 in 10.0 mi NW 3.5 mph - N/A   Mostly Cloudy
2:58 PM 47.7 °F - 40.6 °F 77% 30.15 in 10.0 mi West 4.6 mph - N/A   Overcast
3:58 PM 46.9 °F - 41.4 °F 81% 30.16 in 10.0 mi WNW 3.5 mph - N/A   Overcast
4:58 PM 46.0 °F - 42.3 °F 87% 30.15 in 10.0 mi NNE 2.3 mph - N/A   Overcast
5:36 PM 46.4 °F - 42.8 °F 87% 30.14 in 10.0 mi North - - N/A   Light Drizzle
5:48 PM 46.4 °F - 42.8 °F 87% 30.13 in 10.0 mi Calm Calm - N/A   Overcast
5:58 PM 45.9 °F - 43.0 °F 90% 30.15 in 10.0 mi Calm Calm - 0.00 in   Overcast
6:03 PM 46.4 °F - 42.8 °F 87% 30.13 in 10.0 mi Calm Calm - N/A   Light Drizzle
6:24 PM 44.6 °F - 44.6 °F 100% 30.12 in 10.0 mi East 2.3 mph - N/A   Overcast
6:58 PM 44.1 °F 42.5 °F 43.7 °F 99% 30.13 in 10.0 mi SE 3.5 mph - 0.01 in   Overcast
7:13 PM 44.6 °F - 44.6 °F 100% 30.10 in 10.0 mi SE 2.3 mph - N/A Rain Light Rain
7:35 PM 44.6 °F - 42.8 °F 93% 30.10 in 10.0 mi Calm Calm - N/A   Overcast
7:52 PM 44.6 °F - 42.8 °F 93% 30.10 in 10.0 mi Calm Calm - N/A Rain Light Rain
7:58 PM 44.1 °F - 43.7 °F 99% 30.12 in 10.0 mi Calm Calm - 0.01 in Rain Light Rain
8:20 PM 44.6 °F - 44.6 °F 100% 30.09 in 10.0 mi East 2.3 mph - N/A   Overcast
8:58 PM 43.7 °F - 43.3 °F 99% 30.11 in 10.0 mi ENE 2.3 mph - 0.01 in   Overcast
9:10 PM 44.6 °F - 42.8 °F 93% 30.09 in 10.0 mi ESE 1.2 mph - N/A   Overcast
9:22 PM 42.8 °F - 42.8 °F 100% 30.09 in 10.0 mi ESE 1.2 mph - N/A   Overcast
9:58 PM 43.7 °F - 43.3 °F 99% 30.10 in 10.0 mi North 1.2 mph - 0.00 in   Overcast
10:07 PM 42.8 °F - 42.8 °F 100% 30.08 in 10.0 mi Calm Calm - N/A Rain Light Rain
10:32 PM 44.6 °F - 42.8 °F 93% 30.07 in 10.0 mi NNE 2.3 mph - N/A   Overcast
10:47 PM 44.6 °F - 42.8 °F 93% 30.07 in 10.0 mi NE 2.3 mph - N/A   Overcast
10:57 PM 42.8 °F - 42.8 °F 100% 30.06 in 10.0 mi NE 2.3 mph - N/A   Overcast
10:58 PM 43.7 °F - 43.5 °F 99% 30.08 in 10.0 mi NE 2.3 mph - 0.01 in   Overcast
11:13 PM 42.8 °F - 42.8 °F 100% 30.05 in 10.0 mi ENE 2.3 mph - N/A   Overcast
11:31 PM 44.6 °F - 42.8 °F 93% 30.05 in 10.0 mi ENE 1.2 mph - N/A   Overcast
11:58 PM 43.9 °F - 43.5 °F 99% 30.07 in 10.0 mi NE 1.2 mph - 0.00 in   Light Drizzle